CZ-6A DEB, 60831

Orbit data source: Space-Track

CZ-6A DEB, 60831 is space debris in LEO originally from a launch on Tue, 06 Aug 2024 UTC launched from the Taiyaun Space Center, China (TSC). Debris objects in space refer to the collection of defunct objects orbiting the Earth. Examples of debris include non-operational satellites, rocket bodies, and fragments generated from explosions, collisions, or faulty payload assembly.

Loading next visibility...
Identifier
60831, 2024-140HJ
Orbit
LEO
Country
Flag of CNCN / PRC
Related business
Manufacturer
SAST
Mission
Spacecraft
Bus & Motor
Unknown
Mass
Unknown
Launch date (UTC)
2024-08-06 (1 year ago)
Launch vehicle
Unknown
Launch site
Taiyaun Space Center, China (TSC)
Object type
Payload
Rocket body
Debris
Shape & HBR
Unknown shape, 0.1 m
Radar Cross Section
Small (<0.1 m²)

Expand to show TLE details & history
Last TLE update: 15 hours ago

TLE from 15 hours ago
0 CZ-6A DEB
1 60831U 24140HJ  25348.91522281  .00000857  00000-0  41251-3 0  9997
2 60831  89.0048 296.0319 0061777  63.6514 297.1000 14.16911636 69183
Epoch: 2025-12-14T21:57Z
TLE epoch observation values (Epoch: 2025-12-14T21:57:55.250Z)
Latitude
-0.00005°
Longitude
-117.2696°
Altitude
818.778 km
Speed
7.454 km/s
True Right ascension
19h 44m 07s
True Declination
0° 00' 00"
Sunlit
Object was in daylight at epoch
Visualization orbit readout
Latitude
Unknown
Longitude
Unknown
Altitude
Unknown
Speed
Unknown
Apparent Right ascension
Unknown
Apparent Declination
Unknown
Sunlit
N/A
Visualization observer readout
Local Sidereal Time
11:25:07
Azimuth
Unknown
Elevation
Unknown
Doppler factor
Unknown
Orbital elements
Apogee altitude
877.319 km
Perigee altitude
788.225 km
Semi-major axis
7,210.909 km
Eccentricity
0.00618
Inclination
89.0048°
RAAN
296.0319°
Arg. of periapsis
63.6514°
True anomaly
296.4676°
Mean anomaly
297.1°
Eccentric anomaly
296.78402°
Mean motion
3.54453 °/min
Orbital period
101.57 mins
BSTAR
0.00041251
Loading maneuver chart data...
Computing Atmospheric mass density...
Loading historical data...
Loading historical data...
Loading historical data...
Loading historical data...
Loading historical data...
Loading historical data...
Loading historical data...

Documentation

Showing up to 5 results
|